Location: Drawsko Pomorskie
(53.5317°N, 15.8111°E)
Time: 02:57:41
(UTC+01:00)

Envisat - Pass Details

Date: 24 October 2019
Orbit: 764 x 766 km, 98.1° (Epoch: 14 November)

Event Time Altitude Azimuth Distance (km) Brightness Sun altitude
Rises 18:42:38 0° 163° (SSE) 3,223 6.1 -9.7°
Reaches altitude 10° 18:44:55 10° 163° (SSE) 2,301 5.4 -10.1°
Maximum altitude 18:50:01 90° 256° (WSW) 774 3.0 -10.8°
Drops below altitude 10° 18:55:08 10° 345° (NNW) 2,317 5.6 -11.6°
Sets 18:57:27 0° 346° (NNW) 3,247 6.4 -11.9°
